P/2004 F3 (NEAT)                                                      

Epoch 2004 Dec. 21.0 TT = JDT 2453360.5  

T 2005 Jan. 4.27800 TT                                  Nakano

q   2.8641405            (2000.0)            P               Q

n   0.12252985     Peri.  176.11914     -0.25709035     +0.92783946

a   4.0145922      Node    78.83105     -0.89389348     -0.12206281

e   0.2865675      Incl.   15.98800     -0.36723154     -0.35244092

P   8.04 (+/- 0.01 day)

From 761 observations 2004 Jan. 29-2004 Sept. 20, mean residual 0".44.

Residuals in seconds of arc 

2004/                     040419 213  0.4-  0.5-    040520 945  0.0   0.1-  

040129 704  0.4+  0.4+    040419 J97  1.6+  0.1+    040520 945  0.1+  0.0   

040129 704  1.1+  0.2+    040419 J97  0.7+  0.2+    040520 945  0.0   0.0   

040129 704  0.6+  0.1-    040419 J97  0.2+  0.4+    040520 785  1.5+  0.6+  

040129 704  1.5+  0.1-    040420 D70  0.2+  0.3+    040520 785  0.3-  0.2-  

040315 704  1.5+  0.9-    040420 D70  0.3-  0.3-    040520 785  0.9+  0.3+  

040315 704  1.2+  0.7+    040420 D70  0.4+  0.0     040520 213  0.2+  0.2+  

040315 704  1.6+  1.4+    040420 372  0.2-  0.2+    040520 213  0.1-  0.5-  

040315 704  0.2+  0.8+    040420 360  0.3+  0.1-    040520 213  0.7-  0.3+  

040321 691  0.7-  0.1+    040420 360  0.3+  0.0     040521 703  0.4-  0.5-  

040321 691  0.8-  0.2+    040420 J76  1.1+  0.8+    040521 703  0.2-  0.4-  

040321 691  0.8-  0.1+    040420 J76  1.2+  0.5+    040521 703  0.4-  0.4-  

040322 699  0.9-  0.2+    040420 J76  0.9+  0.3+    040521 703  0.3-  0.3-  

040322 699  1.3-  0.0     040420 J78  0.7+  0.1+    040521 D83  0.2+  0.2-  

040322 699  1.2-  0.2-    040420 J78  0.6+  0.4+    040521 D83  0.2+  0.2-  

040322 699  0.8-  0.1-    040420 J78  0.5+  0.6+    040521 D83  0.4+  0.1-  

040328 608  0.5-  0.5-    040421 945  0.3-  0.2+    040521 D83  0.1+  0.1-  

040328 608  0.0   0.6-    040421 945  0.1-  0.2+    040522 939  0.6+  0.3+  

040328 608  0.5-  0.6-    040421 945  0.2-  0.1+    040522 939  0.5+  0.2+  

040328 611  0.2-  0.1-    040421 945  0.1-  0.1+    040522 939  0.7+  0.3+  

040328 611  0.1-  0.2-    040421 945  0.1-  0.1+    040523 J78  0.8+  0.1-  

040328 611  0.2-  0.2-    040421 D74  1.1+  0.2-    040523 J78  0.8+  0.2+  

040328 246  0.3+  0.2+    040421 127  0.4+  0.1-    040523 J78  0.6+  0.3+  

040328 246  0.5+  0.3+    040421 127  0.3+  0.1-    040523 A41  0.5-  1.0-  

040328 611  0.4-  0.2-    040421 127  0.3+  0.0     040523 A41  0.5-  0.7-  

040328 246  0.3+  0.2+    040421 048  1.2-  0.2-    040523 A41  0.2-  0.5-  

040328 246  0.3+  0.2+    040421 048  1.0-  0.2-    040524 785  0.4+  1.8+  

040328 246  0.4+  0.2+    040421 048  1.0-  0.3-    040524 785  0.8-  1.3+  

040328 246  0.3+  0.3+    040421 048  1.1-  0.2-    040524 372  0.5-  0.2-  

040328 246  0.4+  0.2+    040421 127  0.3+  0.1-    040524 D70  0.4+  0.1-  

040328 246  0.3+  0.2+    040421 048  0.7-  0.1-    040524 D70  0.4+  0.2-  

040328 A16 (2.7-  0.2+)   040421 170  0.1+  0.3-    040524 D70  0.1+  0.1-  

040328 A17  0.3-  0.4-    040421 127  0.3+  0.1-    040524 360  0.2-  0.3+  

040328 A16  1.2-  0.4-    040421 170  0.1+  0.1-    040524 360  0.0   0.5+  

040328 A17  0.1+  0.0     040423 213  0.5-  0.2-    040524 104  0.2+  0.1+  

040328 A16  0.6-  0.0     040423 213  0.5-  0.4-    040524 104  0.1+  0.1+  

040328 A17  0.2-  0.1-    040423 213  0.5-  0.6-    040524 104  0.2+  0.1+  

040328 A16  0.4-  0.2+    040423 J97  0.1+  0.7+    040524 J76  0.1+  0.3+  

040328 A17  0.1-  0.3+    040423 J97  0.2+  0.8+    040524 J76  0.1+  0.4+  

040328 A16  1.8-  0.7-    040423 J97  0.2+  0.6+    040524 J97  0.8+  0.1-  

040328 557  0.3-  0.2-    040423 J87  0.4+  0.4+    040524 J97  0.2+  0.1+  

040328 557  0.4-  0.3-    040423 J87  0.4+  0.5+    040524 J76  0.2+  0.2+  

040328 557  0.5-  0.3-    040423 J87  0.4+  0.4+    040524 J97  0.0   0.1-  

040328 557  0.5-  0.3-    040424 939  0.1-  0.1+    040525 352  0.0   0.1-  

040329 012  0.0   0.1-    040424 939  0.1+  0.1+    040525 352  0.1-  0.2+  

040329 012  0.3-  0.0     040424 939  0.1+  0.1+    040525 352  0.3-  0.3-  

040329 012  0.2-  0.1-    040424 945  0.5-  0.0     040525 349  0.4+  0.2+  

040329 012 (2.6-  0.8+)   040424 945  0.4-  0.0     040525 349  0.0   0.2-  

040329 859  0.5-  0.0     040424 945  0.4-  0.1+    040525 349  0.2+  0.4-  

040329 012  0.3-  0.1-    040424 945  0.4-  0.2+    040525 349  0.4+  0.4-  

040329 859  0.3-  0.1+    040424 945  0.4-  0.1+    040527 415  0.0   0.7+  

040329 859  0.3-  0.1-    040424 703  0.7-  0.6-    040527 415  0.0   1.0+  

040329 012  0.0   0.2-    040424 703  0.9-  0.5-    040527 415  0.5-  0.7+  

040329 012  0.2-  0.1-    040424 703  0.9-  0.4-    040528 048  0.7+  0.4-  

040329 854  0.1+  0.1+    040424 703  1.1-  0.4-    040528 048  0.7+  0.4-  

040329 854  0.1+  0.2+    040424 379  0.4-  0.2+    040528 048  0.9+  0.8-  

040329 854  0.1+  0.1+    040424 379  0.0   0.3+    040528 048  0.3+  0.0   

040329 701  0.3-  0.6+    040424 379  0.1-  0.0     040528 048  0.2+  0.2-  

040329 701  0.4-  0.2-    040424 379  0.4-  0.2-    040529 415  0.7+  1.3-  

040329 701  0.1-  0.3+    040424 379  0.1-  0.0     040529 415  0.3-  1.1-  

040329 448  0.1-  0.0     040424 379  0.3+  0.2+    040529 415  0.1+  0.2-  

040329 448  0.3-  0.2-    040424 372  0.0   0.1-    040529 J76  1.0-  0.5-  

040329 448  0.0   0.2-    040424 360  0.1+  0.1+    040529 J76  0.9-  0.4-  

040329 448  0.1-  0.2-    040424 360  0.0   0.1-    040529 J76  0.2-  0.5-  

040329 673  1.0+  0.5+    040424 349  0.6-  0.2+    040529 A46  0.2-  0.6-  

040329 448  0.3-  0.2-    040424 349  0.6-  0.2+    040529 A46  0.2-  0.3+  

040329 673  0.8+  0.5+    040424 349  0.7-  0.1+    040529 A46  0.2-  0.1+  

040329 448  0.0   0.2-    040424 349  0.7-  0.1+    040529 A46  0.1+  0.2-  

040329 673  1.0+  0.4+    040424 J78  0.6+  0.1+    040529 A46  0.1-  0.3-  

040329 673  1.0+  0.3+    040424 J78  0.6+  0.0     040529 A46  0.2-  0.4-  

040329 H36  0.1-  0.3-    040424 J76  0.1-  0.3-    040601 703  0.3-  0.2-  

040329 H06  0.1-  0.0     040424 J76  0.2-  0.3-    040601 703  0.3-  0.2-  

040329 G72  0.5+  0.2+    040424 J78  0.5+  0.1+    040601 703  0.1-  0.6-  

040329 H36  0.4-  0.3-    040424 170  0.4-  0.1-    040601 703  0.3-  1.1-  

040329 G72  1.4+  1.0+    040424 170  0.2-  0.2-    040601 349  0.1-  0.4+  

040329 G72  0.7+  0.4+    040424 939  0.2-  0.1+    040601 349  0.3-  0.0   

040329 H36  0.2-  0.3-    040424 939  0.0   0.1+    040601 349  0.1+  0.2+  

040329 G72  0.2+  1.5+    040424 J76  0.2-  0.1-    040601 213  0.0   0.7+  

040329 H06  0.2+  0.1+    040424 939  0.0   0.1+    040601 213  0.0   0.6+  

040329 G72  1.0+  0.3+    040425 J78  0.4+  0.3+    040601 213  0.6-  0.3+  

040329 H06  0.1-  0.1+    040425 A01  0.3+  0.5-    040603 900  0.1+  0.1+  

040329 A17  0.0   0.2+    040425 A01  0.4+  0.5-    040603 900  0.6-  0.3+  

040329 A17  0.6-  0.6-    040425 A01  0.5+  0.4-    040603 355  0.4-  0.3-  

040330 J95  0.3-  0.2-    040425 A02  0.3-  0.3-    040603 355  0.4-  0.4-  

040330 J95  0.2-  0.1-    040425 A02  0.3-  0.2-    040603 355  0.1-  0.1-  

040330 J95  0.3-  0.1-    040425 A02  0.4-  0.3-    040603 355  0.2-  0.1+  

040330 673  1.0+  0.1+    040425 333  0.6-  0.1+    040603 J97  0.2-  0.3+  

040330 673  1.2+  0.1-    040425 333  0.6-  0.1+    040603 J97  1.0-  0.0   

040330 673  1.0+  0.0     040425 333  0.7-  0.0     040603 J97  0.4-  0.1-  

040330 372  0.5-  0.3+    040425 699  0.7-  0.5-    040604 J78  0.5+  0.3+  

040330 372  1.0+  0.7+    040425 699  1.0-  0.3-    040604 J78  0.2+  0.3+  

040330 048  0.2-  0.5-    040425 699  1.3-  0.6-    040604 J78  0.0   0.1+  

040330 048  0.3+  1.0-    040425 699  1.2-  0.5-    040605 349  0.3-  0.5+  

040330 048  0.0   0.9-    040425 608  1.0-  0.9+    040605 349  0.4-  0.4+  

040330 048  0.1+  1.0-    040425 608  0.8-  0.8+    040605 349  0.4-  0.4+  

040330 048  0.6+  1.0-    040425 608  0.9-  0.7+    040605 349  0.2-  0.5+  

040330 048  0.7+  0.7-    040425 372  0.5+  0.8+    040605 170  0.2-  0.2-  

040331 A46  0.4-  0.3-    040425 372  0.3+  0.9+    040605 170  0.1-  0.0   

040331 A46  0.6-  0.0     040425 379  0.2-  0.0     040605 939  0.2+  0.5-  

040331 A46  0.1-  0.1+    040425 379  0.1+  0.5+    040605 939  0.0   0.4-  

040331 A46  0.3-  0.1-    040425 D83  0.2-  0.2-    040605 939  0.0   0.3-  

040331 A46  0.3-  0.7-    040425 D83  0.1+  0.1-    040607 A41  0.1+  0.7-  

040331 A46  0.5-  0.2-    040425 D83  0.1-  0.2-    040607 A41  0.2-  0.7-  

040331 H41  0.5+  0.4-    040425 D83  0.1-  0.2-    040607 A41  0.3-  0.5-  

040331 H41  0.7+  0.4-    040425 945  0.5-  0.2-    040607 048  0.4+  0.3+  

040331 H41  0.9+  0.0     040425 945  0.4-  0.2-    040607 048  0.5+  0.7+  

040331 349  0.8+  0.1+    040425 945  0.5-  0.2-    040607 048  0.2+  0.0   

040331 349  1.0+  0.1+    040425 945  0.5-  0.1-    040607 048  0.4+  0.2-  

040331 349  0.9+  0.1+    040425 204  0.5+  0.1+    040607 048  0.6+  0.0   

040331 360  0.0   0.1+    040425 945  0.5-  0.1-    040610 J78  0.0   0.2+  

040331 360  0.2+  0.2+    040425 204  0.1-  0.1+    040610 J78  0.1+  0.1-  

040331 360  0.0   0.1+    040425 204  0.4+  0.5-    040610 J78  0.2+  0.3-  

040401 750  0.1+  0.1-    040426 104  0.4+  0.0     040611 415  0.3-  0.4-  

040401 750  0.2+  0.0     040426 104  0.1+  0.0     040611 415  0.1-  0.1+  

040401 750  0.3-  0.1-    040426 104  0.1+  0.1-    040611 415  0.0   0.2-  

040401 H41  0.3-  0.3-    040426 213  0.1-  0.1-    040611 J87  0.2-  0.1+  

040401 H41  0.3+  0.3-    040426 213  0.1-  0.1-    040611 J87  0.3-  0.0   

040401 H41  0.1-  0.6-    040426 213  0.1-  0.0     040611 J87  0.3-  0.0   

040401 H41  0.5+  0.5-    040426 127  0.3+  0.1+    040612 J76  0.0   0.4+  

040402 355  0.4+  0.3-    040426 127  0.1+  0.2+    040612 J76  0.3-  0.4+  

